This is the latest recevied weather packets stored in our database for station/object OH1KK. If no packets are shown the sender has not sent any weather packets the latest 10 day(s).
| Time | Temp. | Humidity | Pressure | Rain* | Wind** | Luminosity | Snow |
|---|---|---|---|---|---|---|---|
| 1777963760 | 4.44° C | 74% | 989.2 hPa | 0 mm | - | - | - |
| 1777962845 | 3.89° C | 76% | 989 hPa | 0 mm | - | - | - |
| 1777961991 | 3.89° C | 77% | 989 hPa | 0 mm | - | - | - |
| 1777961076 | 3.33° C | 80% | 989 hPa | 0 mm | - | - | - |
| 1777960162 | 3.33° C | 83% | 989 hPa | 0 mm | - | - | - |
| 1777959246 | 2.78° C | 87% | 989.1 hPa | 0 mm | - | - | - |
| 1777957478 | 2.78° C | 87% | 989 hPa | 0 mm | - | - | - |
| 1777956563 | 2.78° C | 88% | 988.9 hPa | 0 mm | - | - | - |
| 1777954793 | 2.22° C | 89% | 988.9 hPa | 0 mm | - | - | - |
| 1777953878 | 2.22° C | 90% | 989 hPa | 0 mm | - | - | - |
| 1777952963 | 2.22° C | 90% | 988.7 hPa | 0 mm | - | - | - |
| 1777952047 | 2.22° C | 91% | 988.8 hPa | 0 mm | - | - | - |
| 1777951194 | 2.22° C | 91% | 988.9 hPa | 0 mm | - | - | - |
| 1777950279 | 2.22° C | 91% | 989 hPa | 0 mm | - | - | - |
| 1777949367 | 1.67° C | 92% | 988.8 hPa | 0 mm | - | - | - |
| 1777948449 | 1.67° C | 92% | 989 hPa | 0 mm | - | - | - |
| 1777945765 | 2.22° C | 94% | 988.8 hPa | 0 mm | - | - | - |
| 1777944849 | 2.22° C | 94% | 988.9 hPa | 0 mm | - | - | - |
| 1777943995 | 2.22° C | 94% | 989 hPa | 0 mm | - | - | - |
| 1777943080 | 2.22° C | 94% | 989.2 hPa | 0 mm | - | - | - |
| 1777942164 | 2.22° C | 94% | 989 hPa | 0 mm | - | - | - |
| 1777940395 | 2.22° C | 96% | 989.2 hPa | 0 mm | - | - | - |
| 1777939480 | 2.22° C | 96% | 989 hPa | 0 mm | - | - | - |
| 1777938565 | 2.22° C | 95% | 989 hPa | 0 mm | - | - | - |
| 1777937650 | 2.22° C | 95% | 989.1 hPa | 0 mm | - | - | - |
* Rain latest hour (hover to see other rain measurements)
** Current wind speed in m/s (hover to see current wind gust speed)